Orbital elements of COSMOS 2251 DEB
| Launched | 15 June 1993 |
| Flight ended | – |
| Launch site | Plesetsk Missile and Space Complex, Russia |
| Owner | Commonwealth of Independent States (former USSR) |
| NORAD ID | 34452 |
| Date fetched |
Epoch osculation |
Inc. [°] |
Ecc. | RA asc node [hr] |
Arg Peri. [°] |
Mean anom [°] |
Mean motion [rev/day] |
Abs. mag |
| Date fetched |
Epoch osculation |
Inc. [°] |
Ecc. | RA asc node [hr] |
Arg Peri. [°] |
Mean anom [°] |
Mean motion [rev/day] |
Abs. mag |
| 2026 May 03 17:57 | 2026 Apr 30 15:43:37 | 74.0256 | 0.00588 | 16.9359 | 294.0628 | 65.4420 | 15.16527 | – |
| 2026 May 02 17:57 | 2026 Apr 30 15:43:37 | 74.0256 | 0.00588 | 16.9359 | 294.0628 | 65.4420 | 15.16527 | – |
| 2026 May 01 17:56 | 2026 Apr 30 15:43:37 | 74.0256 | 0.00588 | 16.9359 | 294.0628 | 65.4420 | 15.16527 | – |
| 2026 Apr 30 17:56 | 2026 Apr 30 15:43:37 | 74.0256 | 0.00588 | 16.9359 | 294.0628 | 65.4420 | 15.16527 | – |
| 2026 Apr 29 17:57 | 2026 Apr 24 10:53:37 | 74.0245 | 0.00587 | 17.7985 | 308.0234 | 65.4420 | 15.16527 | – |
| 2026 Apr 28 17:56 | 2026 Apr 24 10:53:37 | 74.0245 | 0.00587 | 17.7985 | 308.0234 | 65.4420 | 15.16527 | – |
| 2026 Apr 27 17:58 | 2026 Apr 24 10:53:37 | 74.0245 | 0.00587 | 17.7985 | 308.0234 | 65.4420 | 15.16527 | – |
| 2026 Apr 26 17:58 | 2026 Apr 24 10:53:37 | 74.0245 | 0.00587 | 17.7985 | 308.0234 | 65.4420 | 15.16527 | – |
| 2026 Apr 25 17:58 | 2026 Apr 24 10:53:37 | 74.0245 | 0.00587 | 17.7985 | 308.0234 | 65.4420 | 15.16527 | – |
| 2026 Apr 24 17:59 | 2026 Apr 24 10:53:37 | 74.0245 | 0.00587 | 17.7985 | 308.0234 | 65.4420 | 15.16527 | – |
| 2026 Apr 23 17:57 | 2026 Apr 19 05:47:58 | 74.0258 | 0.00588 | 18.5232 | 319.7053 | 65.4420 | 15.16527 | – |
| 2026 Apr 22 17:57 | 2026 Apr 19 05:47:58 | 74.0258 | 0.00588 | 18.5232 | 319.7053 | 65.4420 | 15.16527 | – |
| 2026 Apr 21 17:57 | 2026 Apr 19 05:47:58 | 74.0258 | 0.00588 | 18.5232 | 319.7053 | 65.4420 | 15.16527 | – |
| 2026 Apr 20 17:57 | 2026 Apr 19 05:47:58 | 74.0258 | 0.00588 | 18.5232 | 319.7053 | 65.4420 | 15.16527 | – |
| 2026 Apr 19 17:58 | 2026 Apr 19 05:47:58 | 74.0258 | 0.00588 | 18.5232 | 319.7053 | 65.4420 | 15.16527 | – |
| 2026 Apr 18 17:56 | 2026 Apr 12 18:36:36 | 74.0274 | 0.00587 | 19.4223 | 334.4675 | 65.4420 | 15.16527 | – |
| 2026 Apr 16 17:57 | 2026 Apr 12 18:36:36 | 74.0274 | 0.00587 | 19.4223 | 334.4675 | 65.4420 | 15.16527 | – |
| 2026 Apr 14 17:57 | 2026 Apr 12 18:36:36 | 74.0274 | 0.00587 | 19.4223 | 334.4675 | 65.4420 | 15.16527 | – |
| 2026 Apr 13 17:57 | 2026 Apr 12 18:36:36 | 74.0274 | 0.00587 | 19.4223 | 334.4675 | 65.4420 | 15.16527 | – |
| 2026 Apr 12 17:57 | 2026 Apr 08 14:50:26 | 74.0285 | 0.00585 | 20.0001 | 344.4167 | 65.4420 | 15.16527 | – |
| 2026 Apr 11 17:57 | 2026 Apr 08 14:50:26 | 74.0285 | 0.00585 | 20.0001 | 344.4167 | 65.4420 | 15.16527 | – |
| 2026 Apr 10 17:58 | 2026 Apr 08 14:50:26 | 74.0285 | 0.00585 | 20.0001 | 344.4167 | 65.4420 | 15.16527 | – |
| 2026 Apr 09 18:01 | 2026 Apr 08 14:50:26 | 74.0285 | 0.00585 | 20.0001 | 344.4167 | 65.4420 | 15.16527 | – |
| 2026 Apr 08 17:57 | 2026 Apr 08 14:50:26 | 74.0285 | 0.00585 | 20.0001 | 344.4167 | 65.4420 | 15.16527 | – |
| 2026 Apr 07 17:57 | 2026 Apr 02 00:27:42 | 74.0284 | 0.00583 | 20.9173 | 0.7276 | 65.4420 | 15.16527 | – |
| 2026 Apr 06 17:57 | 2026 Apr 02 00:27:42 | 74.0284 | 0.00583 | 20.9173 | 0.7276 | 65.4420 | 15.16527 | – |